CW2882 Anacortes WA US current weather conditions

sailwx.info

Wind from 226 at 2 knots gusting 4

Air temperature 17.8° C
Dewpoint 14.1° C

Last reported at 2020-Aug-06 00:03 UTC.
Time now 2020-Aug-06 00:29 UTC

Location: N 48°30' W 122°40'.
View on Google Maps.

See reports from other nearby stations

  
Tides and Currents Weather Stations Pressure Air Temp Water Temp Dewpoint Dewpoint Depression Visibility Wind Speed Wind Dir Waves Ship Positions
date/time (UTC)wind fromknots sea level pressurealtimeterstation pressurevisibilityair tempwater tempwave heightnotes
2020-Aug-06 00:03 226 2 gusting 4 17.8
2020-Aug-05 23:58 176 2 gusting 6 17.8
2020-Aug-05 23:53 141 1 gusting 6 17.8
2020-Aug-05 23:48 131 1 gusting 6 17.8
2020-Aug-05 23:43 159 1 gusting 6 18.3
2020-Aug-05 23:38 057 1 gusting 6 18.3
2020-Aug-05 23:33 155 2 gusting 8 18.9
2020-Aug-05 23:28 239 4 gusting 8 18.3
2020-Aug-05 23:23 205 3 gusting 8 18.9
2020-Aug-05 23:18 213 2 gusting 8 18.9
2020-Aug-05 23:13 243 2 gusting 8 18.9
2020-Aug-05 23:08 269 2 gusting 6 18.9
2020-Aug-05 23:03 113 2 gusting 8 18.3
2020-Aug-05 22:58 218 1 gusting 10 18.3
2020-Aug-05 22:53 166 3 gusting 8 18.3
2020-Aug-05 22:48 139 3 gusting 9 18.9
2020-Aug-05 22:43 185 3 gusting 9 18.9
2020-Aug-05 22:38 063 3 gusting 9 18.9
2020-Aug-05 22:33 358 4 gusting 8 18.9
2020-Aug-05 22:28 137 2 gusting 9 19.4
2020-Aug-05 22:23 224 2 gusting 9 19.4
2020-Aug-05 22:18 226 2 gusting 7 19.4
2020-Aug-05 22:13 176 3 gusting 7 19.4
2020-Aug-05 22:08 125 2 gusting 6 19.4
2020-Aug-05 22:03 153 1 gusting 6 19.4
2020-Aug-05 21:58 231 2 gusting 8 19.4
2020-Aug-05 21:54 246 2 gusting 6 19.4
2020-Aug-05 21:48 324 3 gusting 6 19.4
2020-Aug-05 21:43 217 2 gusting 7 19.4
2020-Aug-05 21:38 218 1 gusting 7 19.4
2020-Aug-05 21:33 196 3 gusting 7 18.9
2020-Aug-05 21:28 213 2 gusting 7 18.9
2020-Aug-05 21:23 094 2 gusting 7 18.9
2020-Aug-05 21:18 097 1 gusting 6 18.9
2020-Aug-05 21:13 219 3 gusting 8 18.9
2020-Aug-05 21:08 246 2 gusting 8 18.9
2020-Aug-05 21:03 156 1 gusting 8 18.9
2020-Aug-05 20:58 215 4 gusting 9 18.9
2020-Aug-05 20:53 197 1 gusting 6 18.9
2020-Aug-05 20:48 174 1 gusting 6 18.9
2020-Aug-05 20:43 179 1 gusting 6 18.9
2020-Aug-05 20:38 202 2 gusting 6 18.9
2020-Aug-05 20:33 248 2 gusting 6 18.9
2020-Aug-05 20:28 139 1 gusting 6 18.9
2020-Aug-05 20:23 278 1 gusting 7 18.9
2020-Aug-05 20:18 233 1 gusting 7 18.3
2020-Aug-05 20:13 271 1 gusting 6 18.3
2020-Aug-05 20:08 169 3 gusting 7 17.8
2020-Aug-05 20:03 271 3 gusting 7 17.8
2020-Aug-05 19:58 219 2 gusting 7 18.3
2020-Aug-05 19:53 244 2 gusting 7 18.3
2020-Aug-05 19:48 158 2 gusting 12 17.8
2020-Aug-05 19:43 291 4 gusting 12 17.8
2020-Aug-05 19:38 179 3 gusting 7 17.8
2020-Aug-05 19:33 128 2 gusting 7 17.8
2020-Aug-05 19:28 160 2 gusting 8 17.8
2020-Aug-05 19:23 233 3 gusting 8 17.2
2020-Aug-05 19:18 137 2 gusting 7 17.2
2020-Aug-05 19:13 262 3 gusting 8 17.2
2020-Aug-05 19:08 143 3 gusting 8 17.2
2020-Aug-05 19:03 259 2 gusting 8 17.2
2020-Aug-05 18:58 193 2 gusting 8 17.2
2020-Aug-05 18:53 281 3 gusting 8 16.7
2020-Aug-05 18:48 213 4 gusting 8 16.7
2020-Aug-05 18:43 105 2 gusting 8 16.7
2020-Aug-05 18:38 174 4 gusting 7 16.7
2020-Aug-05 18:33 275 3 gusting 7 16.7
2020-Aug-05 18:28 353 2 gusting 9 16.7
2020-Aug-05 18:23 274 2 gusting 11 16.1
2020-Aug-05 18:18 124 3 gusting 11 16.1
2020-Aug-05 18:13 221 3 gusting 9 16.1
2020-Aug-05 18:08 117 4 gusting 9 16.1
2020-Aug-05 18:03 086 2 gusting 8 16.1
2020-Aug-05 17:58 266 4 gusting 8 16.1
2020-Aug-05 17:53 167 3 gusting 6 16.1
2020-Aug-05 17:48 075 2 gusting 8 15.6
2020-Aug-05 17:43 172 4 gusting 8 15.6
2020-Aug-05 17:38 169 4 gusting 8 15.6
2020-Aug-05 17:33 226 3 gusting 9 15.0
2020-Aug-05 17:28 236 3 gusting 9 15.0
2020-Aug-05 17:23 219 5 gusting 12 15.0
2020-Aug-05 17:18 192 5 gusting 12 15.0
2020-Aug-05 17:13 236 6 gusting 13 15.0
2020-Aug-05 17:08 198 5 gusting 11 15.0
2020-Aug-05 17:03 225 3 gusting 9 15.0
2020-Aug-05 16:58 189 2 gusting 10 14.4
2020-Aug-05 16:53 338 5 gusting 10 14.4
2020-Aug-05 16:48 266 5 gusting 8 14.4
2020-Aug-05 16:43 248 4 gusting 8 14.4
2020-Aug-05 16:39 306 3 gusting 10 14.4
2020-Aug-05 16:33 112 3 gusting 10 13.9
2020-Aug-05 16:28 252 3 gusting 8 13.9
2020-Aug-05 16:23 231 2 gusting 11 13.3
2020-Aug-05 16:18 226 5 gusting 11 13.3
2020-Aug-05 16:13 262 3 gusting 10 13.3
2020-Aug-05 16:08 248 2 gusting 11 13.3
2020-Aug-05 16:03 197 3 gusting 6 12.8
2020-Aug-05 15:58 072 2 gusting 9 12.8
2020-Aug-05 15:54 329 3 gusting 9 12.8
2020-Aug-05 15:48 306 3 gusting 10 12.8
2020-Aug-05 15:43 334 4 gusting 12 12.8
2020-Aug-05 15:38 264 4 gusting 12 12.8
2020-Aug-05 15:33 139 3 gusting 7 12.8
2020-Aug-05 15:28 200 3 gusting 9 12.2
2020-Aug-05 15:23 213 4 gusting 9 12.2
2020-Aug-05 15:18 172 3 gusting 9 12.2
2020-Aug-05 15:13 120 2 gusting 9 12.2
2020-Aug-05 15:08 236 4 gusting 9 12.2
2020-Aug-05 15:03 165 4 gusting 9 12.2
2020-Aug-05 14:58 143 2 gusting 10 11.7
2020-Aug-05 14:53 252 3 gusting 10 11.7
2020-Aug-05 14:48 166 3 gusting 9 11.7
2020-Aug-05 14:43 143 4 gusting 11 11.7
2020-Aug-05 14:38 219 4 gusting 12 11.7
2020-Aug-05 14:33 217 6 gusting 12 11.7
2020-Aug-05 14:28 196 2 gusting 11 11.7
2020-Aug-05 14:23 163 2 gusting 8 11.7
2020-Aug-05 14:18 147 4 gusting 8 11.7
2020-Aug-05 14:13 235 2 gusting 9 11.7
2020-Aug-05 14:08 157 2 gusting 8 11.7
2020-Aug-05 14:03 129 3 gusting 8 11.1
2020-Aug-05 13:58 237 4 gusting 8 11.1
2020-Aug-05 13:53 153 2 gusting 8 11.1
2020-Aug-05 13:48 117 3 gusting 7 11.1
2020-Aug-05 13:43 160 3 gusting 10 11.1
2020-Aug-05 13:38 269 2 gusting 12 11.1
2020-Aug-05 13:33 245 3 gusting 12 11.1
2020-Aug-05 13:28 146 2 gusting 8 11.1
2020-Aug-05 13:23 030 3 gusting 11 11.1
2020-Aug-05 13:18 225 4 gusting 9 11.1
2020-Aug-05 13:13 235 2 gusting 8 11.1
2020-Aug-05 13:08 192 2 gusting 10 11.1
2020-Aug-05 13:03 219 3 gusting 10 11.1
2020-Aug-05 12:58 158 3 gusting 8 11.1
2020-Aug-05 12:53 262 2 gusting 8 11.1
2020-Aug-05 12:48 055 3 gusting 7 11.1
2020-Aug-05 12:43 142 3 gusting 8 11.1
2020-Aug-05 12:38 210 4 gusting 9 11.1
2020-Aug-05 12:33 068 2 gusting 9 11.1
2020-Aug-05 12:28 259 1 gusting 6 11.1
2020-Aug-05 12:23 158 2 gusting 6 11.1
2020-Aug-05 12:18 128 1 gusting 6 11.1
2020-Aug-05 12:13 131 2 gusting 6 11.7
2020-Aug-05 12:08 140 2 gusting 6 11.7
2020-Aug-05 12:03 083 1 gusting 5 11.7
2020-Aug-05 11:58 140 1 gusting 5 11.7
2020-Aug-05 11:53 205 1 gusting 6 11.7
2020-Aug-05 11:48 223 1 gusting 6 11.7
2020-Aug-05 11:43 104 1 gusting 6 11.7
2020-Aug-05 11:38 188 1 gusting 5 11.7
2020-Aug-05 11:33 178 2 gusting 7 11.7
2020-Aug-05 11:28 198 3 gusting 7 11.7
2020-Aug-05 11:24 146 3 gusting 6 11.7
2020-Aug-05 11:18 283 2 gusting 5 12.2
2020-Aug-05 11:13 153 2 gusting 6 12.2
2020-Aug-05 11:08 059 1 gusting 6 12.2
2020-Aug-05 11:03 306 2 gusting 5 12.2
2020-Aug-05 10:58 154 0 gusting 5 12.2
2020-Aug-05 10:53 174 1 gusting 4 12.2
2020-Aug-05 10:48 238 2 gusting 6 12.2
2020-Aug-05 10:43 148 2 gusting 6 12.8
2020-Aug-05 10:38 173 1 gusting 4 12.8
2020-Aug-05 10:33 094 2 gusting 5 12.8
2020-Aug-05 10:28 117 2 gusting 6 13.3
2020-Aug-05 10:23 096 1 gusting 6 13.3
2020-Aug-05 10:18 150 2 gusting 5 13.3
2020-Aug-05 10:13 140 1 gusting 5 13.3
2020-Aug-05 10:08 135 2 gusting 5 13.3
2020-Aug-05 10:03 204 2 gusting 5 13.3
2020-Aug-05 09:58 169 0 gusting 5 13.3
2020-Aug-05 09:53 172 2 gusting 4 13.3
2020-Aug-05 09:48 124 0 gusting 3 13.3
2020-Aug-05 09:43 203 0 gusting 3 13.3
2020-Aug-05 09:38 160 0 gusting 3 13.9
2020-Aug-05 09:33 187 13.9
2020-Aug-05 09:28 134 0 gusting 2 13.9
2020-Aug-05 09:23 170 0 gusting 2 13.9
2020-Aug-05 09:18 148 0 gusting 2 13.9
2020-Aug-05 09:13 152 1 gusting 3 13.9
2020-Aug-05 09:08 205 2 gusting 3 13.9
2020-Aug-05 09:03 152 1 gusting 3 13.9
2020-Aug-05 08:58 158 0 gusting 2 13.9
2020-Aug-05 08:53 075 0 gusting 4 14.4
2020-Aug-05 08:48 102 0 gusting 4 14.4
2020-Aug-05 08:43 150 1 gusting 3 14.4
2020-Aug-05 08:38 158 2 gusting 3 14.4
2020-Aug-05 08:33 099 1 gusting 3 14.4
2020-Aug-05 08:28 200 1 gusting 4 14.4
2020-Aug-05 08:23 153 2 gusting 5 14.4
2020-Aug-05 08:18 148 0 gusting 5 14.4
2020-Aug-05 08:13 113 0 gusting 2 14.4
2020-Aug-05 08:08 103 14.4
2020-Aug-05 08:04 110 0 gusting 4 14.4
2020-Aug-05 07:58 159 0 gusting 4 14.4
2020-Aug-05 07:53 212 1 gusting 4 14.4
2020-Aug-05 07:48 138 2 gusting 4 14.4
2020-Aug-05 07:43 164 1 gusting 3 14.4
2020-Aug-05 07:38 139 1 gusting 3 14.4
2020-Aug-05 07:33 146 0 gusting 4 14.4
2020-Aug-05 07:28 217 1 gusting 4 14.4
2020-Aug-05 07:23 191 1 gusting 4 14.4
2020-Aug-05 07:18 102 1 gusting 4 14.4
2020-Aug-05 07:13 207 1 gusting 5 14.4
2020-Aug-05 07:08 114 1 gusting 5 14.4
2020-Aug-05 07:03 125 2 gusting 5 14.4
2020-Aug-05 06:58 150 0 gusting 4 14.4
2020-Aug-05 06:53 133 1 gusting 4 14.4
2020-Aug-05 06:48 225 1 gusting 5 13.9
2020-Aug-05 06:43 193 2 gusting 5 13.9
2020-Aug-05 06:38 205 1 gusting 6 13.9
2020-Aug-05 06:33 184 3 gusting 6 14.4
2020-Aug-05 06:28 184 3 gusting 6 14.4
2020-Aug-05 06:23 233 3 gusting 6 14.4
2020-Aug-05 06:13 171 1 gusting 4 14.4
2020-Aug-05 06:08 153 0 gusting 4 15.0
2020-Aug-05 06:03 212 0 gusting 3 15.0
2020-Aug-05 05:58 134 1 gusting 5 15.0
2020-Aug-05 05:53 118 1 gusting 6 15.0
2020-Aug-05 05:48 129 1 gusting 6 15.0
2020-Aug-05 05:43 184 3 gusting 6 15.0
2020-Aug-05 05:38 157 2 gusting 6 15.0
2020-Aug-05 05:33 108 3 gusting 6 15.0
2020-Aug-05 05:28 198 3 gusting 6 15.0
2020-Aug-05 05:23 189 4 gusting 6 15.0
2020-Aug-05 05:18 155 3 gusting 6 15.0
2020-Aug-05 05:13 185 2 gusting 6 15.0
2020-Aug-05 05:08 133 2 gusting 6 14.4
2020-Aug-05 05:03 214 3 gusting 6 14.4
2020-Aug-05 04:58 134 3 gusting 5 14.4
2020-Aug-05 04:53 188 2 gusting 5 13.9
2020-Aug-05 04:48 160 2 gusting 6 13.9
2020-Aug-05 04:38 190 2 gusting 5 13.9
2020-Aug-05 04:33 160 2 gusting 6 13.9
2020-Aug-05 04:28 145 3 gusting 6 13.9
2020-Aug-05 04:23 219 3 gusting 6 13.9
2020-Aug-05 04:18 188 3 gusting 7 13.9
2020-Aug-05 04:13 214 4 gusting 7 14.4
2020-Aug-05 04:08 174 3 gusting 7 14.4
2020-Aug-05 04:03 127 3 gusting 6 14.4
2020-Aug-05 03:58 134 1 gusting 6 14.4
2020-Aug-05 03:53 200 3 gusting 6 14.4
2020-Aug-05 03:48 170 2 gusting 6 15.0
2020-Aug-05 03:43 124 2 gusting 5 15.0
2020-Aug-05 03:38 163 2 gusting 5 15.6
2020-Aug-05 03:33 169 2 gusting 5 15.6
2020-Aug-05 03:28 149 2 gusting 5 16.1
2020-Aug-05 03:23 143 2 gusting 5 16.1
2020-Aug-05 03:18 060 2 gusting 6 16.7
2020-Aug-05 03:13 199 2 gusting 5 16.7
2020-Aug-05 03:08 141 3 gusting 6 16.7
2020-Aug-05 03:03 147 3 gusting 6 17.2
2020-Aug-05 02:58 230 3 gusting 6 17.2
2020-Aug-05 02:53 226 2 gusting 5 17.8
2020-Aug-05 02:48 182 2 gusting 6 17.8
2020-Aug-05 02:43 162 3 gusting 6 17.8
2020-Aug-05 02:38 152 4 gusting 6 18.3
2020-Aug-05 02:33 181 2 gusting 6 18.3
2020-Aug-05 02:28 205 2 gusting 6 18.9
2020-Aug-05 02:23 157 1 gusting 6 18.9
2020-Aug-05 02:18 158 4 gusting 5 19.4
2020-Aug-05 02:13 185 2 gusting 5 19.4
2020-Aug-05 02:08 202 0 gusting 6 19.4
2020-Aug-05 02:03 207 1 gusting 6 19.4
2020-Aug-05 01:58 205 2 gusting 5 19.4
2020-Aug-05 01:53 177 2 gusting 5 19.4
2020-Aug-05 01:48 185 2 gusting 6 19.4
2020-Aug-05 01:43 094 1 gusting 6 18.9
2020-Aug-05 01:38 293 2 gusting 6 18.9
2020-Aug-05 01:33 137 2 gusting 7 18.9
2020-Aug-05 01:28 176 2 gusting 6 18.9
2020-Aug-05 01:23 177 2 gusting 7 18.9
2020-Aug-05 01:18 181 3 gusting 7 19.4
2020-Aug-05 01:13 276 2 gusting 6 20.0
2020-Aug-05 01:08 249 2 gusting 6 20.0
2020-Aug-05 01:03 153 1 gusting 5 20.6
2020-Aug-05 00:58 023 1 gusting 5 21.1
2020-Aug-05 00:53 215 1 gusting 5 21.1
2020-Aug-05 00:48 142 1 gusting 6 21.7
2020-Aug-05 00:43 112 0 gusting 6 22.2
2020-Aug-05 00:38 304 2 gusting 4 22.2
2020-Aug-05 00:33 211 1 gusting 5 22.8
2020-Aug-05 00:28 184 1 gusting 5 22.2
2020-Aug-05 00:23 203 1 gusting 5 22.2
2020-Aug-05 00:18 137 1 gusting 6 22.2
2020-Aug-05 00:13 186 1 gusting 6 22.2
2020-Aug-05 00:08 162 1 gusting 6 22.2
2020-Aug-05 00:03 148 1 gusting 5 22.2
2020-Aug-04 23:58 172 3 gusting 5 22.8
2020-Aug-04 23:53 146 1 gusting 5 22.8
2020-Aug-04 23:48 173 1 gusting 4 23.3
2020-Aug-04 23:43 203 1 gusting 5 23.3
2020-Aug-04 23:38 172 0 gusting 5 23.3
2020-Aug-04 23:33 205 0 gusting 3 23.3
2020-Aug-04 23:28 214 1 gusting 3 23.3
2020-Aug-04 23:23 199 1 gusting 4 23.3
2020-Aug-04 23:18 137 1 gusting 4 23.9
2020-Aug-04 23:13 118 0 gusting 3 23.9
2020-Aug-04 23:08 184 0 gusting 4 23.9
2020-Aug-04 23:03 217 0 gusting 4 23.3
2020-Aug-04 22:58 181 0 gusting 4 23.3
2020-Aug-04 22:53 188 0 gusting 4 22.8
2020-Aug-04 22:48 210 0 gusting 5 22.8
2020-Aug-04 22:43 214 1 gusting 5 22.8
2020-Aug-04 22:38 278 0 gusting 4 22.8
2020-Aug-04 22:33 297 2 gusting 4 22.8
2020-Aug-04 22:28 203 1 gusting 3 22.8
2020-Aug-04 22:23 292 0 gusting 3 22.8
2020-Aug-04 22:18 296 1 gusting 3 22.8
2020-Aug-04 22:13 220 1 gusting 3 22.8
2020-Aug-04 22:08 186 1 gusting 3 22.2
2020-Aug-04 22:03 232 1 gusting 5 22.2
2020-Aug-04 21:58 153 1 gusting 3 22.2
2020-Aug-04 21:53 190 0 gusting 3 22.8
2020-Aug-04 21:48 250 1 gusting 3 22.8
2020-Aug-04 21:43 273 1 gusting 3 22.8
2020-Aug-04 21:38 200 0 gusting 2 22.8
2020-Aug-04 21:33 031 22.2
2020-Aug-04 21:28 321 1 gusting 4 22.2
2020-Aug-04 21:23 318 1 gusting 3 22.2
2020-Aug-04 21:18 352 1 gusting 3 21.7
2020-Aug-04 21:13 307 1 gusting 3 21.7
2020-Aug-04 21:08 006 2 gusting 4 21.7
2020-Aug-04 21:03 331 1 gusting 4 21.7
2020-Aug-04 20:58 360 2 gusting 3 21.7
2020-Aug-04 20:53 338 1 gusting 3 21.7
2020-Aug-04 20:48 328 1 gusting 3 21.7
2020-Aug-04 20:43 305 1 gusting 3 21.7
2020-Aug-04 20:38 004 1 gusting 3 21.7
2020-Aug-04 20:33 335 1 gusting 4 21.1
2020-Aug-04 20:28 345 1 gusting 4 21.1
2020-Aug-04 20:23 357 1 gusting 3 21.7
2020-Aug-04 20:18 329 1 gusting 2 21.7
2020-Aug-04 20:13 309 1 gusting 2 21.1
2020-Aug-04 20:08 315 1 gusting 2 21.1
2020-Aug-04 20:03 352 0 gusting 3 21.1
2020-Aug-04 19:58 335 0 gusting 4 21.1
2020-Aug-04 19:53 022 2 gusting 4 20.6
2020-Aug-04 19:48 322 1 gusting 3 21.1
2020-Aug-04 19:43 327 1 gusting 3 21.1
2020-Aug-04 19:38 029 1 gusting 3 20.6
2020-Aug-04 19:33 023 1 gusting 4 21.1
2020-Aug-04 19:28 030 1 gusting 4 20.6
2020-Aug-04 19:23 009 1 gusting 2 20.6
2020-Aug-04 19:18 340 1 gusting 3 20.6
2020-Aug-04 19:13 296 1 gusting 3 20.6
2020-Aug-04 19:08 047 2 gusting 3 20.6
2020-Aug-04 19:03 022 1 gusting 3 20.6
2020-Aug-04 18:58 310 0 gusting 4 20.6
2020-Aug-04 18:53 308 1 gusting 4 20.6
2020-Aug-04 18:48 347 0 gusting 4 20.6
2020-Aug-04 18:43 293 2 gusting 4 20.6
2020-Aug-04 18:38 283 0 gusting 3 20.6
2020-Aug-04 18:33 303 1 gusting 3 20.6
2020-Aug-04 18:28 086 0 gusting 4 20.6
2020-Aug-04 18:23 235 1 gusting 4 20.6
2020-Aug-04 18:18 246 1 gusting 3 20.6
2020-Aug-04 18:13 180 20.6
2020-Aug-04 18:09 281 0 gusting 2 20.6
2020-Aug-04 18:03 205 0 gusting 3 20.0
2020-Aug-04 17:58 269 0 gusting 4 20.0
2020-Aug-04 17:53 219 0 gusting 4 20.0
2020-Aug-04 17:48 243 1 gusting 4 20.0
2020-Aug-04 17:43 262 1 gusting 4 20.0
2020-Aug-04 17:38 210 0 gusting 3 19.4
2020-Aug-04 17:33 263 0 gusting 4 19.4
2020-Aug-04 17:28 226 0 gusting 3 19.4
2020-Aug-04 17:23 163 0 gusting 4 18.9
2020-Aug-04 17:18 145 2 gusting 4 18.9
2020-Aug-04 17:13 134 1 gusting 4 18.3
2020-Aug-04 17:08 148 2 gusting 4 18.3
2020-Aug-04 17:03 248 0 gusting 3 17.8
2020-Aug-04 16:58 238 1 gusting 5 17.2
2020-Aug-04 16:53 144 1 gusting 4 16.7
2020-Aug-04 16:48 203 1 gusting 4 16.7
2020-Aug-04 16:43 155 0 gusting 3 16.1
2020-Aug-04 16:38 151 1 gusting 3 15.6
2020-Aug-04 16:33 180 0 gusting 4 15.6
2020-Aug-04 16:28 198 1 gusting 4 15.0
2020-Aug-04 16:23 217 2 gusting 4 14.4
2020-Aug-04 16:18 193 2 gusting 4 14.4
2020-Aug-04 16:13 185 1 gusting 5 14.4
2020-Aug-04 16:08 169 2 gusting 5 14.4
2020-Aug-04 16:03 189 1 gusting 4 14.4
2020-Aug-04 15:58 153 1 gusting 4 14.4
2020-Aug-04 15:53 193 1 gusting 4 14.4
2020-Aug-04 15:48 178 2 gusting 4 14.4
2020-Aug-04 15:43 154 1 gusting 5 14.4
2020-Aug-04 15:38 150 1 gusting 5 15.0
2020-Aug-04 15:33 142 1 gusting 3 15.0
2020-Aug-04 15:28 166 0 gusting 2 15.0
2020-Aug-04 15:23 176 0 gusting 3 15.0
2020-Aug-04 15:18 227 1 gusting 3 15.0
2020-Aug-04 15:13 139 0 gusting 2 15.0
2020-Aug-04 15:08 181 15.0
2020-Aug-04 15:03 297 0 gusting 1 15.0
2020-Aug-04 14:58 223 15.0
2020-Aug-04 14:53 170 15.0
2020-Aug-04 14:48 207 0 gusting 1 15.0
2020-Aug-04 14:43 176 0 gusting 1 15.0
2020-Aug-04 14:38 226 15.0
2020-Aug-04 14:33 209 0 gusting 2 14.4
2020-Aug-04 14:28 136 14.4
2020-Aug-04 14:23 168 0 gusting 1 14.4
2020-Aug-04 14:18 194 0 gusting 1 14.4
2020-Aug-04 14:13 148 0 gusting 1 13.9
2020-Aug-04 14:08 198 13.9
2020-Aug-04 14:03 206 0 gusting 2 13.9
2020-Aug-04 13:58 174 1 gusting 3 13.9
2020-Aug-04 13:53 186 1 gusting 3 13.9
2020-Aug-04 13:48 153 0 gusting 2 14.4
2020-Aug-04 13:43 191 14.4
2020-Aug-04 13:38 197 1 gusting 2 14.4
2020-Aug-04 13:33 190 0 gusting 1 14.4
2020-Aug-04 13:28 153 14.4
2020-Aug-04 13:23 153 14.4
2020-Aug-04 13:18 155 13.9
2020-Aug-04 13:13 144 13.9
2020-Aug-04 13:08 152 13.9
2020-Aug-04 13:03 181 13.9
2020-Aug-04 12:58 257 13.3
2020-Aug-04 12:53 180 14.4
2020-Aug-04 12:48 179 14.4
2020-Aug-04 12:43 176 14.4
2020-Aug-04 12:38 192 14.4
2020-Aug-04 12:33 195 14.4
2020-Aug-04 12:28 155 14.4
2020-Aug-04 12:23 154 14.4
2020-Aug-04 12:18 169 14.4
2020-Aug-04 12:13 169 13.9
2020-Aug-04 12:08 163 13.9
2020-Aug-04 12:03 173 13.9
2020-Aug-04 11:58 165 13.9
2020-Aug-04 11:53 143 13.9
2020-Aug-04 11:48 158 13.9
2020-Aug-04 11:43 160 13.9
2020-Aug-04 11:38 124 0 gusting 1 13.9
2020-Aug-04 11:33 151 0 gusting 1 13.9
2020-Aug-04 11:28 146 13.9
2020-Aug-04 11:23 126 13.9
2020-Aug-04 11:18 138 13.3
2020-Aug-04 11:13 151 13.3
2020-Aug-04 11:08 155 13.3
2020-Aug-04 11:03 137 13.3
2020-Aug-04 10:58 153 12.8
2020-Aug-04 10:53 168 0 gusting 3 12.8
2020-Aug-04 10:48 158 0 gusting 3 12.8
2020-Aug-04 10:43 160 0 gusting 3 12.2
2020-Aug-04 10:38 166 0 gusting 3 12.2
2020-Aug-04 10:33 191 0 gusting 3 12.2
2020-Aug-04 10:28 187 1 gusting 4 12.2
2020-Aug-04 10:23 200 1 gusting 4 12.2
2020-Aug-04 10:18 165 1 gusting 3 12.2
2020-Aug-04 10:13 182 1 gusting 3 12.2
2020-Aug-04 10:08 151 2 gusting 6 12.2
2020-Aug-04 10:03 215 2 gusting 6 12.2
2020-Aug-04 09:58 214 2 gusting 6 12.2
2020-Aug-04 09:53 170 2 gusting 4 12.2
2020-Aug-04 09:48 170 2 gusting 4 12.8
2020-Aug-04 09:43 195 2 gusting 4 12.8
2020-Aug-04 09:38 203 1 gusting 2 13.3
2020-Aug-04 09:33 204 13.3
2020-Aug-04 09:28 218 13.9
2020-Aug-04 09:23 150 1 gusting 2 13.9
2020-Aug-04 09:18 153 1 gusting 2 13.3
2020-Aug-04 09:13 212 1 gusting 3 13.9
2020-Aug-04 09:08 204 1 gusting 3 13.9
2020-Aug-04 09:03 161 1 gusting 2 13.9
2020-Aug-04 08:58 199 0 gusting 2 13.9
2020-Aug-04 08:53 172 0 gusting 2 13.9
2020-Aug-04 08:48 200 1 gusting 2 13.9
2020-Aug-04 08:43 193 0 gusting 2 13.9
2020-Aug-04 08:38 193 0 gusting 2 14.4
2020-Aug-04 08:33 219 0 gusting 1 14.4
2020-Aug-04 08:28 174 0 gusting 2 15.0
2020-Aug-04 08:23 160 0 gusting 2 15.0
2020-Aug-04 08:18 143 15.6
2020-Aug-04 08:13 195 0 gusting 1 15.6
2020-Aug-04 08:08 136 0 gusting 2 15.0
2020-Aug-04 08:03 117 1 gusting 3 15.0
2020-Aug-04 07:58 152 1 gusting 3 14.4
2020-Aug-04 07:53 161 1 gusting 3 13.9
2020-Aug-04 07:48 158 1 gusting 2 13.9
2020-Aug-04 07:43 122 0 gusting 1 13.9
2020-Aug-04 07:38 129 13.9
2020-Aug-04 07:33 129 13.9
2020-Aug-04 07:28 129 13.9
2020-Aug-04 07:23 129 13.9
2020-Aug-04 07:18 129 13.9
2020-Aug-04 07:13 129 0 gusting 2 13.9
2020-Aug-04 07:08 186 1 gusting 2 13.9
2020-Aug-04 07:03 202 0 gusting 2 13.9
2020-Aug-04 06:58 192 13.9
2020-Aug-04 06:53 153 0 gusting 3 13.9
2020-Aug-04 06:48 197 1 gusting 3 13.9
2020-Aug-04 06:43 158 1 gusting 4 14.4
2020-Aug-04 06:38 201 1 gusting 4 14.4
2020-Aug-04 06:33 233 1 gusting 3 14.4
2020-Aug-04 06:28 160 1 gusting 4 14.4
2020-Aug-04 06:23 176 0 gusting 4 14.4
2020-Aug-04 06:18 200 1 gusting 5 14.4
2020-Aug-04 06:13 144 1 gusting 5 14.4
2020-Aug-04 06:08 191 1 gusting 4 14.4
2020-Aug-04 06:03 142 1 gusting 4 14.4
2020-Aug-04 05:58 150 1 gusting 4 14.4
2020-Aug-04 05:53 172 1 gusting 3 14.4
2020-Aug-04 05:48 198 0 gusting 4 15.0
2020-Aug-04 05:43 175 1 gusting 4 15.0
2020-Aug-04 05:38 176 1 gusting 3 15.0
2020-Aug-04 05:33 137 1 gusting 4 15.6
2020-Aug-04 05:28 155 1 gusting 6 15.6
2020-Aug-04 05:23 126 2 gusting 6 16.1
2020-Aug-04 05:18 144 2 gusting 4 16.7
2020-Aug-04 05:13 178 0 gusting 4 17.2
2020-Aug-04 05:08 242 17.2
2020-Aug-04 05:03 153 0 gusting 2 17.2
2020-Aug-04 04:58 160 17.2
2020-Aug-04 04:53 212 17.2
2020-Aug-04 04:48 152 17.2
2020-Aug-04 04:43 143 0 gusting 2 17.2
2020-Aug-04 04:38 154 17.2
2020-Aug-04 04:33 155 17.2
2020-Aug-04 04:28 170 17.2
2020-Aug-04 04:23 160 17.2
2020-Aug-04 04:18 204 17.2
2020-Aug-04 04:13 209 17.2
2020-Aug-04 04:08 162 17.2
2020-Aug-04 04:03 184 17.2
2020-Aug-04 03:58 170 17.2
2020-Aug-04 03:54 110 0 gusting 3 17.2
2020-Aug-04 03:48 196 1 gusting 3 17.2
2020-Aug-04 03:43 125 1 gusting 3 17.8
2020-Aug-04 03:38 222 0 gusting 2 17.8
2020-Aug-04 03:33 158 17.8
2020-Aug-04 03:28 128 1 gusting 3 18.3
2020-Aug-04 03:23 139 18.3
2020-Aug-04 03:18 226 18.3
2020-Aug-04 03:13 240 1 gusting 4 18.3
2020-Aug-04 03:08 177 0 gusting 4 18.9
2020-Aug-04 03:03 261 1 gusting 4 18.9
2020-Aug-04 02:58 245 19.4
2020-Aug-04 02:53 131 0 gusting 3 19.4
2020-Aug-04 02:48 234 1 gusting 3 19.4
2020-Aug-04 02:43 167 1 gusting 3 20.0
2020-Aug-04 02:38 215 1 gusting 5 20.0
2020-Aug-04 02:33 231 0 gusting 5 20.6
2020-Aug-04 02:28 285 1 gusting 5 20.6
2020-Aug-04 02:23 238 0 gusting 3 20.6
2020-Aug-04 02:18 257 0 gusting 3 20.6
2020-Aug-04 02:13 254 1 gusting 5 20.6
2020-Aug-04 02:08 233 0 gusting 5 20.6
2020-Aug-04 02:03 236 0 gusting 3 20.6
2020-Aug-04 01:58 148 0 gusting 4 20.6
2020-Aug-04 01:53 169 1 gusting 4 20.6
2020-Aug-04 01:48 260 0 gusting 5 21.1
2020-Aug-04 01:43 252 2 gusting 5 21.1
2020-Aug-04 01:38 053 1 gusting 4 21.1
2020-Aug-04 01:33 277 1 gusting 4 21.1
2020-Aug-04 01:28 206 0 gusting 5 21.1
2020-Aug-04 01:23 040 0 gusting 4 21.1
2020-Aug-04 01:18 203 0 gusting 6 21.1
2020-Aug-04 01:13 191 1 gusting 6 21.1
2020-Aug-04 01:08 160 2 gusting 6 21.7
2020-Aug-04 01:03 258 1 gusting 6 21.7
2020-Aug-04 00:58 239 0 gusting 5 21.7
2020-Aug-04 00:53 219 1 gusting 5 21.1
2020-Aug-04 00:48 207 1 gusting 5 21.1
2020-Aug-04 00:43 165 2 gusting 6 21.1
2020-Aug-04 00:38 236 2 gusting 6 21.7
2020-Aug-04 00:33 179 1 gusting 6 21.7
2020-Aug-04 00:28 234 3 gusting 6 21.7
2020-Aug-04 00:23 125 3 gusting 6 22.2
2020-Aug-04 00:18 250 2 gusting 5 22.2
2020-Aug-04 00:13 295 0 gusting 4 22.2
2020-Aug-04 00:08 229 1 gusting 4 22.2
2020-Aug-04 00:03 216 1 gusting 6 21.7